This demonstration page uses our WeatherBlox Daily Observations layout. Learn more.

40.92945, -100.16068

Hourly Observations for June 1, 2015

Temp ( °F °C ) Dew Point ( °F °C ) Humidity (%) Winds ( mph kmh ) Pressure ( in mb ) Visibility ( mi km ) Precip ( " mm )
12:15 am 00:15 Clear 61 16.1 54 12 77 77 SE 9 15 30.03 1017 10 16.0934 N/A
12:35 am 00:35 Clear 60 15.8 54 12.1 79 79 SE 9 15 30.03 1017 10 16.0934 N/A
12:55 am 00:55 Clear 60 15.6 54 12 79 79 SE 8 13 30.03 1017 10 16.0934 N/A
1:15 am 01:15 Clear 60 15.6 54 12.1 80 80 SE 9 15 30.03 1017 10 16.0934 N/A
1:35 am 01:35 Clear 60 15.4 54 12 80 80 SE 9 15 30.03 1017 10 16.0934 N/A
1:55 am 01:55 Clear 60 15.5 54 12.1 80 80 SE 9 15 30 1016 10 16.0934 N/A
2:15 am 02:15 Clear 60 15.5 54 12.2 81 81 SE 8 13 30.03 1017 10 16.0934 N/A
2:35 am 02:35 Clear 59 15.2 54 12.1 82 82 SE 8 13 30.03 1017 10 16.0934 N/A
2:55 am 02:55 Clear 59 15.1 54 12.1 82 82 SE 10 17 30.03 1017 10 16.0934 N/A
3:15 am 03:15 Clear 59 15 54 12.2 83 83 SE 9 15 30.03 1017 10 16.0934 N/A
3:35 am 03:35 Clear 58 14.7 54 12.2 85 85 SSE 9 15 30 1016 10 16.0934 N/A
3:55 am 03:55 Clear 58 14.5 54 12.3 87 87 SE 9 15 30 1016 10 16.0934 N/A
4:15 am 04:15 Clear 58 14.3 54 12.2 87 87 SE 9 15 30 1016 10 16.0934 N/A
4:35 am 04:35 Clear 58 14.3 54 12.4 88 88 SE 8 13 30 1016 10 16.0934 N/A
4:55 am 04:55 Clear with Nearby Thunderstorms 57 14.1 55 12.5 90 90 SE 10 17 30 1016 10 16.0934 N/A
5:15 am 05:15 Clear 58 14.3 55 12.6 90 90 SE 8 13 30 1016 10 16.0934 N/A
5:35 am 05:35 Clear 58 14.2 55 12.5 90 90 SE 7 11 30.03 1017 10 16.0934 N/A
5:55 am 05:55 Clear 58 14.2 55 12.6 90 90 SE 9 15 30 1016 10 16.0934 N/A
6:15 am 06:15 Sunny 58 14.2 55 12.6 90 90 SE 9 15 30 1016 10 16.0934 N/A
6:35 am 06:35 Sunny 57 14 55 12.5 91 91 SE 9 15 30.03 1017 10 16.0934 N/A
6:55 am 06:55 Sunny 57 14 55 12.6 91 91 SE 9 15 30.03 1017 10 16.0934 N/A
7:15 am 07:15 Sunny 58 14.2 55 12.8 91 91 SE 9 15 30.03 1017 10 16.0934 N/A
7:35 am 07:35 Sunny 58 14.6 56 13.1 91 91 SE 10 17 30.03 1017 10 16.0934 N/A
7:55 am 07:55 Sunny 59 15.1 56 13.3 89 89 SSE 9 15 30.03 1017 10 16.0934 N/A
8:15 am 08:15 Sunny 60 15.8 57 13.7 87 87 SSE 9 15 30.03 1017 10 16.0934 N/A
8:35 am 08:35 Sunny 62 16.9 58 14.3 85 85 SSE 10 17 30.03 1017 10 16.0934 N/A
8:55 am 08:55 Partly Cloudy 64 17.5 58 14.4 82 82 SSE 12 19 30 1016 10 16.0934 N/A
9:15 am 09:15 Partly Cloudy 65 18.1 58 14.4 79 79 S 17 28 30 1016 10 16.0934 N/A
9:35 am 09:35 Partly Cloudy 64 18 58 14.3 79 79 S 16 26 30 1016 10 16.0934 N/A
9:55 am 09:55 Mostly Cloudy 66 18.7 58 14.7 78 78 SSE 15 24 30 1016 10 16.0934 N/A
10:15 am 10:15 Mostly Cloudy 65 18.5 58 14.7 79 79 S 13 20 30 1016 10 16.0934 N/A
10:35 am 10:35 Mostly Cloudy 66 19.1 60 15.3 79 79 S 13 20 30 1016 10 16.0934 N/A
10:55 am 10:55 Cloudy 67 19.2 60 15.3 78 78 S 10 17 30 1016 10 16.0934 N/A
11:15 am 11:15 Mostly Cloudy 67 19.6 60 15.4 77 77 S 13 20 29.97 1015 10 16.0934 N/A
11:35 am 11:35 Mostly Cloudy 68 20.2 60 15.7 75 75 S 13 20 29.97 1015 10 16.0934 N/A
11:55 am 11:55 Cloudy 68 20.2 60 15.7 75 75 SSE 14 22 29.97 1015 10 16.0934 N/A
12:15 pm 12:15 Cloudy 69 20.8 61 16.2 75 75 SE 13 20 29.94 1014 10 16.0934 N/A
12:35 pm 12:35 Mostly Cloudy 70 21 61 15.9 73 73 SSE 15 24 29.94 1014 10 16.0934 N/A
12:55 pm 12:55 Mostly Cloudy 70 21.1 61 16.3 74 74 S 14 22 29.94 1014 10 16.0934 N/A
1:15 pm 13:15 Mostly Cloudy 70 21 61 16.2 74 74 S 14 22 29.94 1014 10 16.0934 N/A
1:35 pm 13:35 Partly Cloudy 71 21.6 62 16.5 73 73 S 14 22 29.94 1014 10 16.0934 N/A
1:55 pm 13:55 Partly Cloudy 71 21.5 62 16.4 73 73 SSE 14 22 29.94 1014 10 16.0934 N/A
2:15 pm 14:15 Partly Cloudy 71 21.7 61 16.2 71 71 SSE 13 20 29.94 1014 10 16.0934 N/A
2:35 pm 14:35 Partly Cloudy 71 21.8 62 16.5 72 72 SSE 16 26 29.94 1014 10 16.0934 N/A
2:55 pm 14:55 Partly Cloudy 71 21.7 61 16.2 71 71 SE 15 24 29.94 1014 10 16.0934 N/A
3:15 pm 15:15 Partly Cloudy 72 22.1 62 16.5 71 71 SSE 14 22 29.94 1014 10 16.0934 N/A
3:35 pm 15:35 Partly Cloudy 73 22.7 62 16.7 69 69 SSE 14 22 29.94 1014 10 16.0934 N/A
3:55 pm 15:55 Partly Cloudy 74 23.1 62 16.8 68 68 SSE 18 30 29.94 1014 10 16.0934 N/A
4:15 pm 16:15 Sunny 74 23.2 62 16.8 67 67 SSE 17 28 29.94 1014 10 16.0934 N/A
4:35 pm 16:35 Sunny 74 23.4 63 17 67 67 SE 14 22 29.94 1014 10 16.0934 N/A
4:55 pm 16:55 Sunny 74 23.3 62 16.7 67 67 SSE 18 30 29.91 1013 10 16.0934 N/A
5:15 pm 17:15 Sunny 74 23.3 62 16.5 66 66 SSE 16 26 29.91 1013 10 16.0934 N/A
5:35 pm 17:35 Sunny 74 23.5 62 16.6 65 65 SE 17 28 29.88 1012 10 16.0934 N/A
5:55 pm 17:55 Sunny 74 23.4 62 16.5 65 65 SSE 16 26 29.91 1013 10 16.0934 N/A
6:15 pm 18:15 Sunny 74 23.2 62 16.7 67 67 SSE 20 31 29.91 1013 10 16.0934 N/A
6:35 pm 18:35 Sunny 74 23.1 62 16.8 68 68 SE 16 26 29.91 1013 10 16.0934 N/A
6:55 pm 18:55 Partly Cloudy 71 21.5 53 11.9 54 54 SSE 12 19 29.94 1014 10 16.0934 N/A
7:15 pm 19:15 Sunny 74 23.2 62 16.8 67 67 SSE 15 24 29.91 1013 10 16.0934 N/A
7:35 pm 19:35 Sunny 73 22.7 62 16.7 69 69 SSE 15 24 29.91 1013 10 16.0934 N/A
7:55 pm 19:55 Sunny 72 22.2 62 16.5 70 70 SSE 14 22 29.91 1013 10 16.0934 N/A
8:15 pm 20:15 Sunny 71 21.5 62 16.5 73 73 SSE 15 24 29.91 1013 10 16.0934 N/A
8:35 pm 20:35 Sunny 70 21 61 16.3 75 75 SSE 13 20 29.91 1013 7 11.26538 N/A
8:55 pm 20:55 Sunny 69 20.5 61 16.1 76 76 SSE 13 20 29.91 1013 10 16.0934 N/A
9:15 pm 21:15 Clear 68 20 61 16 78 78 SE 13 20 29.91 1013 10 16.0934 N/A
9:35 pm 21:35 Clear 67 19.6 61 15.9 79 79 SE 13 20 29.91 1013 10 16.0934 N/A
9:55 pm 21:55 Clear 67 19.3 61 15.9 81 81 SE 12 19 29.94 1014 10 16.0934 N/A
10:15 pm 22:15 Clear 66 19 60 15.7 81 81 SE 14 22 29.94 1014 10 16.0934 N/A
10:35 pm 22:35 Clear 66 18.7 60 15.6 82 82 SE 13 20 29.97 1015 10 16.0934 N/A
10:55 pm 22:55 Clear 65 18.5 60 15.5 83 83 SE 14 22 29.97 1015 10 16.0934 N/A
11:15 pm 23:15 Clear 65 18.1 60 15.5 85 85 SE 13 20 29.94 1014 10 16.0934 N/A
11:35 pm 23:35 Clear 64 18 60 15.3 84 84 SE 13 20 29.94 1014 10 16.0934 N/A
11:55 pm 23:55 Clear 64 17.8 59 15.2 85 85 SSE 14 22 29.94 1014 10 16.0934 N/A

Powered by AerisWeather